Leadville, CO

10:19 PM MST on November 14, 2019 (GMT -0700)
Lake County

Weather History for KLXV - September, 2019

Change the Weather History Date:

Wednesday, September 4, 2019

  Actual Average Record
Temperature  
Mean Temperature 57 °F -  
Max Temperature 71 °F 64 °F 75 °F (1978)
Min Temperature 42 °F 34 °F 28 °F (1988)
Degree Days  
Heating Degree Days 8 16  
Month to date heating degree days 31 62  
Since 1 July heating degree days 624 784  
Cooling Degree Days 0 0  
Month to date cooling degree days 0 0  
Year to date cooling degree days 0 0  
Growing Degree Days 6 (Base 50)    
Moisture  
Dew Point 40 °F    
Average Humidity 59    
Maximum Humidity 89    
Minimum Humidity 28    
Precipitation  
Precipitation T in 0.05 in 0.33 in (2015)
Month to date precipitation T 0.19  
Year to date precipitation 12.54 9.14  
Sea Level Pressure  
Sea Level Pressure 30.22 in    
Wind  
Wind Speed 6 mph (SE)    
Max Wind Speed 24 mph    
Max Gust Speed 34 mph    
Visibility 9 miles    
Events Rain , Thunderstorm    
T = Trace of Precipitation, MM = Missing Value Source: NWS Daily Summary

Daily Weather History Graph

Daily Weather History Graph

Search for Another Location

Airport or City:

Astronomy

Sep. 04, 2019 Rise Set
Actual Time 6:36 AM MDT 7:31 PM MDT
Civil Twilight 6:09 AM MDT 7:58 PM MDT
Nautical Twilight 5:36 AM MDT 8:31 PM MDT
Astronomical Twilight 5:03 AM MDT 9:04 PM MDT
Moon 12:38 PM MDT (9/4) 11:10 PM MDT (9/4)
Length of Visible Light 13h 49m
Length of Day
12h 55m
Waxing Crescent, 35% of the Moon is Illuminated
Sep 4
Waxing Crescent
Sep 5
First Quarter
Sep 13
Full
Sep 21
Last Quarter
Sep 28
New

Hourly Weather History & Observations

Time (MDT) Temp. Windchill Dew Point Humidity Pressure Visibility Wind Dir Wind Speed Gust Speed Precip Events Conditions
12:53 AM 48.9 °F - 42.1 °F 77% 30.06 in 10.0 mi South 8.1 mph - N/A   Clear
1:53 AM 45.0 °F 42.6 °F 39.0 °F 80% 30.07 in 10.0 mi East 4.6 mph - N/A   Scattered Clouds
2:53 AM 46.9 °F - 39.0 °F 74% 30.06 in 10.0 mi Calm Calm - N/A   Mostly Cloudy
3:53 AM 46.9 °F - 39.9 °F 77% 30.06 in 10.0 mi Calm Calm - N/A   Mostly Cloudy
4:53 AM 46.0 °F - 39.9 °F 79% 30.08 in 10.0 mi Calm Calm - N/A   Mostly Cloudy
5:27 AM 46.0 °F 44.8 °F 39.9 °F 79% 30.62 in 10.0 mi NE 3.5 mph - N/A   Partly Cloudy
5:53 AM 45.0 °F - 41.0 °F 86% 30.10 in 6.0 mi Calm Calm - N/A   Clear
6:53 AM 45.0 °F 41.8 °F 41.0 °F 86% 30.13 in 10.0 mi NE 5.8 mph - N/A   Partly Cloudy
7:53 AM 48.9 °F - 42.1 °F 77% 30.13 in 10.0 mi Calm Calm - N/A   Clear
8:53 AM 55.0 °F - 43.0 °F 64% 30.12 in 10.0 mi Calm Calm - N/A   Partly Cloudy
9:53 AM 59.0 °F - 43.0 °F 55% 30.10 in 10.0 mi WNW 3.5 mph - N/A   Mostly Cloudy
10:42 AM 60.1 °F - 43.0 °F 53% 30.62 in 1.8 mi SSW 4.6 mph - N/A   Haze
10:48 AM 60.8 °F - 44.6 °F 55% 30.61 in 3.0 mi South 4.6 mph - N/A   Haze
10:53 AM 61.0 °F - 44.1 °F 54% 30.09 in 9.0 mi South 4.6 mph - N/A   Partly Cloudy
11:53 AM 66.0 °F - 36.0 °F 33% 30.07 in 7.0 mi Variable 4.6 mph - N/A   Partly Cloudy
12:53 PM 66.9 °F - 35.1 °F 31% 30.07 in 10.0 mi NNW 8.1 mph - N/A Thunderstorm Mostly Cloudy
1:07 PM 66.0 °F - 36.0 °F 33% 30.59 in 9.0 mi WNW 9.2 mph - N/A   Mostly Cloudy
1:20 PM 66.9 °F - 36.0 °F 32% 30.59 in 6.0 mi WNW 4.6 mph - N/A Thunderstorm Unknown
1:53 PM 69.1 °F - 35.1 °F 29% 30.07 in 10.0 mi West 10.4 mph - N/A   Scattered Clouds
2:53 PM 64.9 °F - 39.0 °F 39% 30.07 in 10.0 mi South 11.5 mph - N/A   Scattered Clouds
3:11 PM 63.0 °F - 43.0 °F 48% 30.59 in 6.0 mi SSW 12.7 mph - 0.00 in Rain , Thunderstorm Light Thunderstorms and Rain
3:41 PM 60.1 °F - 44.1 °F 55% 30.58 in 9.0 mi SSE 16.1 mph 24.2 mph 0.00 in Rain , Thunderstorm Light Rain
3:53 PM 60.1 °F - 43.0 °F 53% 30.11 in 10.0 mi SSE 12.7 mph - 0.00 in   Scattered Clouds
4:53 PM 60.1 °F - 43.0 °F 53% 30.14 in 10.0 mi South 15.0 mph 23.0 mph N/A   Mostly Cloudy
5:53 PM 59.0 °F - 39.9 °F 49% 30.16 in 10.0 mi SSE 17.3 mph 24.2 mph N/A   Scattered Clouds
6:53 PM 59.0 °F - 39.9 °F 49% 30.15 in 4.0 mi SSE 8.1 mph - N/A   Haze
7:53 PM 51.1 °F - 41.0 °F 68% 30.19 in 10.0 mi East 3.5 mph - N/A   Clear
8:53 PM 46.9 °F - 39.0 °F 74% 30.19 in 10.0 mi ENE 6.9 mph - N/A   Clear
9:53 PM 45.0 °F 40.6 °F 39.0 °F 80% 30.19 in 10.0 mi NE 8.1 mph - N/A   Clear
10:53 PM 44.1 °F 40.1 °F 37.0 °F 76% 30.17 in 10.0 mi ENE 6.9 mph - N/A   Clear
11:53 PM 44.1 °F 40.8 °F 37.0 °F 76% 30.15 in 10.0 mi NE 5.8 mph - N/A   Clear